User: anonymous   Login
Location: Bridgewater Hill Observatory
(43.5992°N, 72.6989°W)
Time: 04:10:59
(UTC-05:00)
Language:

Cosmos 1452 Rocket - Orbit

View from above orbital plane
View from above orbital plane
View from above satellite
View from above satellite

Ground track
Ground track

The orbit data is extracted from the following two-line orbital elements,

1 13992U 83031B   17350.64446215  .00000063  00000-0  30703-4 0  9993
2 13992  74.0540  32.4998 0005938 317.6044  42.4649 14.36103414814998
Epoch (UTC): 16 December 2017 15:28:01
Eccentricity: 0.0005938
inclination: 74.0540°
perigee height: 767 km
apogee height: 775 km
right ascension of ascending node: 32.4998°
argument of perigee: 317.6044°
revolutions per day: 14.36103414
mean anomaly at epoch: 42.4649°
orbit number at epoch: 81499

The dashed part of the orbit path shows where the satellite is in the earth's shadow,  

DLR